Regional Weather Roundup
Issued by NWS

Home | Current Version | Previous Version | Graphics & Text | Print | Product List | Glossary On
Versions: 1 2 3 4 5 6 7 8 9 10 11 12 13 14 15 16 17 18 19 20 21 22 23 24 25 26 27 28 29 30 31 32 33 34 35 36 37 38 39 40 41 42 43 44 45 46 47 48 49 50
000
ASUS45 KBOU 070810
RWRCO

WEATHER ROUNDUP FOR COLORADO
NATIONAL WEATHER SERVICE DENVER/BOULDER CO
200 AM MDT TUE JUL 07 2015

NOTE: "FAIR" INDICATES FEW OR NO CLOUDS BELOW 12000 FEET WITH NO
SIGNIFICANT WEATHER AND/OR OBSTRUCTIONS TO VISIBILITY.

COZ001>005-013-030-031-070900-
...NORTHWEST COLORADO...

CITY           SKY/WX    TMP DP  RH WIND       PRES   REMARKS
CRAIG          NOT AVBL
HAYDEN         CLOUDY    55  50  82 SE10      30.26F
MEEKER         CLOUDY    59  52  77 NE9       30.23F
MOUNT WERNER   NOT AVBL
STEAMBOAT SPGS CLOUDY    53  52  97 CALM      30.30S
WALDEN         CLOUDY    54  52  94 NE3       30.33R
$$

COZ006>008-011-070900-
...WEST CENTRAL VALLEYS...

CITY           SKY/WX    TMP DP  RH WIND       PRES   REMARKS
GRAND JUNCTION CLOUDY    67  53  61 NW6       30.09F
MONTROSE       MOCLDY    63  48  58 S6        30.18S
EAGLE          CLOUDY    61  55  82 SE5       30.28R
RIFLE          CLOUDY    62  57  83 E3        30.17F
DELTA          MOCLDY    67  49  53 NE7       30.13S
NUCLA          MOCLDY    59  50  72 E9        30.21F
$$

COZ017>023-064>068-070900-
...SOUTHWEST COLORADO...

CITY           SKY/WX    TMP DP  RH WIND       PRES   REMARKS
DURANGO        MOCLDY    59  54  83 CALM      30.24S
CORTEZ         CLEAR     59  52  77 E5        30.17S
PAGOSA SPRINGS CLOUDY    58  55  90 CALM      30.32F
TELLURIDE      PTCLDY    52  46  78 CALM      30.39F
WOLF CREEK PAS NOT AVBL
$$

COZ009-010-012-014-032>034-037-058>063-070900-
...CENTRAL COLORADO...

CITY           SKY/WX    TMP DP  RH WIND       PRES   REMARKS
ASPEN          CLOUDY    55  50  83 CALM      30.32R
BUENA VISTA    CLOUDY    54  49  86 SE5       30.38F
COPPER MTN     MOCLDY    45  41  87 S14G21    30.57F
BERTHOUD PASS  HAZE      36  28  75 SE17G24   30.62F VSB<1/4
COTTONWOOD PAS NOT AVBL
GUNNISON       PTCLDY    52  43  71 N10       30.33F
KREMMLING      LGT RAIN  55  50  82 N3        30.32R
LEADVILLE      CLOUDY    47  46  97 S5        30.46S
MONARCH PASS   FOG       41  39  93 E10       30.69S VSB<1/4
SALIDA         CLOUDY    56  53  91 E6        30.44S
SUNLIGHT       CLOUDY    50  43  76 CALM      30.52S
WILKERSON PASS FOG       43  41  93 SW5       30.58S VSB 1/2
$$

COZ069>075-070900-
...SAN LUIS VALLEY/SANGRE DE CRISTO MOUNTAINS...

CITY           SKY/WX    TMP DP  RH WIND       PRES   REMARKS
ALAMOSA        CLOUDY    55  53  93 N3        30.33S
LA VETA PASS   DRZL/FOG  43  41  93 MISG      30.50S VSB 1/2
SAGUACHE       MOCLDY    52  52 100 CALM      30.37F
$$

COZ035-036-038>040-070900-
...NORTHERN COLORADO FRONT RANGE...

CITY           SKY/WX    TMP DP  RH WIND       PRES   REMARKS
DENVER INTL AP CLOUDY    59  53  80 SE7       30.27S HAZE
DMNS CITY PARK   N/A     60  53  78 E9        30.27S
AURORA         NOT AVBL
FRONT RANGE AP NOT AVBL
ERIE MUNI ARPT CLOUDY    59  57  92 CALM      30.26F FOG
BOULDER MUN AP DRIZZLE   57  57 100 SE3       30.27F
CENTENNIAL     CLOUDY    58  55  90 S6        30.29F FOG
BROOMFIELD     CLOUDY    57  55  94 CALM      30.29F FOG
FORT COLLINS   MOCLDY    59  55  88 SE10      30.27F
LONGMONT       LGT RAIN  60  58  93 CALM      30.28F
$$

COZ041-046-047-076>085-087-088-070900-
...PIKES PEAK/PALMER DIVIDE AND SOUTHERN FOOTHILLS...

CITY           SKY/WX    TMP DP  RH WIND       PRES   REMARKS
COLO. SPRINGS  DRIZZLE   57  54  89 S3        30.34F FOG
A. F. ACADEMY  LGT RAIN  54  54 100 SE12      30.34S FOG
ELLICOTT       CLOUDY   N/A N/A N/A SE12      30.33S HAZE
FALCON         CLOUDY    53  52  96 SE12      30.37F FOG
FORT CARSON    CLOUDY    58  54  88 S2        30.32S
LIMON          CLOUDY    55  51  86 SE7       30.30F FOG
MONUMENT HILL  CLOUDY    52  50  93 MISG      30.36F FOG
TRINIDAD       LGT RAIN  59  55  87 NE12      30.29F
$$

COZ042>045-048>051-090-091-070900-
...NORTHEAST COLORADO...

CITY           SKY/WX    TMP DP  RH WIND       PRES   REMARKS
GREELEY ARPT   CLOUDY    63  54  72 SE7       30.26F
AKRON          CLOUDY    60  52  74 SE10      30.26F HAZE
BURLINGTON     CLOUDY    60  52  74 E8        30.25F
WRAY           MOCLDY    61  52  72 E5        30.24F
STERLING       CLOUDY    63  52  67 SE6         N/A
HOLYOKE        MOCLDY    61  57  88 SE3       30.24F
FORT MORGAN    CLOUDY    60  51  72 E6        30.26S
$$

COZ086-089-092>099-070900-
...SOUTHEAST COLORADO...

CITY           SKY/WX    TMP DP  RH WIND       PRES   REMARKS
PUEBLO         LGT RAIN  64  56  75 E8        30.26F
LA JUNTA       CLOUDY    65  52  62 E9        30.24S HAZE
LAMAR          CLOUDY    65  51  60 E8        30.21S HAZE
SPRINGFIELD      N/A     62  52  69 NE12      30.22F
$$



USA.gov is the U.S. government's official web portal to all federal, state and local government web resources and services.